| time (UTC) | temp C | wind direction | speed KPH | gust KPH | rain 1hr cm | rain 24hr cm | rain mn cm | humidity % | barometer mb |
| 20260506104113 | 16 | 19 | 4.8 | 14.5 | 0.00 | 0.00 | 0.00 | 67 | 1003.0 |
| 20260506103114 | 16 | 355 | 3.2 | 11.3 | 0.00 | 0.00 | 0.00 | 67 | 1003.0 |
| 20260506102114 | 16 | 5 | 3.2 | 9.7 | 0.00 | 0.00 | 0.00 | 67 | 1003.1 |
| 20260506101114 | 16 | 17 | 6.4 | 12.9 | 0.00 | 0.00 | 0.00 | 66 | 1003.1 |
| 20260506100114 | 16 | 20 | 4.8 | 11.3 | 0.00 | 0.00 | 0.00 | 63 | 1003.3 |
| 20260506095114 | 16 | 9 | 4.8 | 11.3 | 0.00 | 0.00 | 0.00 | 64 | 1003.6 |
| 20260506094113 | 16 | 350 | 3.2 | 9.7 | 0.00 | 0.00 | 0.00 | 66 | 1003.5 |
| 20260506093113 | 16 | 21 | 4.8 | 11.3 | 0.00 | 0.00 | 0.00 | 66 | 1003.4 |
| 20260506092113 | 17 | 360 | 4.8 | 11.3 | 0.00 | 0.00 | 0.00 | 65 | 1003.5 |
| 20260506091114 | 16 | 350 | 4.8 | 9.7 | 0.00 | 0.00 | 0.00 | 69 | 1003.3 |
| 20260506090113 | 15 | 254 | 4.8 | 8.0 | 0.00 | 0.00 | 0.00 | 71 | 1003.5 |
| 20260506085113 | 15 | 248 | 3.2 | 9.7 | 0.00 | 0.00 | 0.00 | 70 | 1003.5 |
| 20260506084113 | 15 | 217 | 1.6 | 8.0 | 0.00 | 0.00 | 0.00 | 74 | 1003.6 |
| 20260506083113 | 14 | 216 | 3.2 | 6.4 | 0.00 | 0.00 | 0.00 | 75 | 1003.4 |
| 20260506082113 | 13 | 216 | 0.0 | 3.2 | 0.00 | 0.00 | 0.00 | 77 | 1003.7 |
| 20260506081113 | 13 | 216 | 1.6 | 4.8 | 0.00 | 0.00 | 0.00 | 78 | 1003.6 |
| 20260506080113 | 13 | 216 | 0.0 | 1.6 | 0.00 | 0.00 | 0.00 | 79 | 1003.8 |
| 20260506073112 | 12 | 216 | 0.0 | 0.0 | 0.00 | 0.00 | 0.00 | 81 | 1003.6 |
| 20260506072112 | 12 | 216 | 0.0 | 3.2 | 0.00 | 0.00 | 0.00 | 82 | 1003.7 |
| 20260506071112 | 12 | 216 | 0.0 | 4.8 | 0.00 | 0.00 | 0.00 | 83 | 1003.5 |
| 20260506070112 | 12 | 216 | 0.0 | 0.0 | 0.00 | 0.00 | 0.00 | 83 | 1003.8 |
| 20260506062112 | 11 | 216 | 0.0 | 0.0 | 0.00 | 0.00 | 0.00 | 83 | 1003.8 |
| 20260506061112 | 11 | 216 | 0.0 | 0.0 | 0.00 | 0.00 | 0.00 | 83 | 1004.0 |
| 20260506060112 | 11 | 216 | 0.0 | 0.0 | 0.00 | 0.00 | 0.00 | 83 | 1003.9 |
| 20260506051111 | 10 | 216 | 0.0 | 0.0 | 0.00 | 0.00 | 0.00 | 81 | 1004.0 |
| 20260506050112 | 10 | 216 | 0.0 | 0.0 | 0.00 | 0.00 | 0.00 | 81 | 1004.1 |
| 20260506045112 | 10 | 216 | 0.0 | 0.0 | 0.00 | 0.00 | 0.00 | 81 | 1004.1 |
| 20260506044111 | 10 | 216 | 0.0 | 0.0 | 0.00 | 0.00 | 0.00 | 80 | 1004.2 |
| 20260506043111 | 10 | 216 | 0.0 | 0.0 | 0.00 | 0.00 | 0.00 | 80 | 1004.4 |
| 20260506042111 | 10 | 216 | 0.0 | 0.0 | 0.00 | 0.00 | 0.00 | 80 | 1004.5 |
| 20260506041111 | 10 | 216 | 0.0 | 0.0 | 0.00 | 0.00 | 0.00 | 80 | 1004.5 |
| 20260506040111 | 10 | 216 | 0.0 | 0.0 | 0.00 | 0.00 | 0.00 | 80 | 1004.6 |
| 20260506035111 | 10 | 216 | 0.0 | 0.0 | 0.00 | 0.00 | 0.00 | 80 | 1004.9 |
| 20260506034111 | 10 | 216 | 0.0 | 0.0 | 0.00 | 0.00 | 0.00 | 80 | 1005.0 |
| 20260506033111 | 11 | 216 | 0.0 | 0.0 | 0.00 | 0.00 | 0.00 | 80 | 1005.1 |
| 20260506032111 | 11 | 216 | 0.0 | 0.0 | 0.00 | 0.00 | 0.00 | 80 | 1005.2 |
| 20260506031111 | 11 | 216 | 1.6 | 4.8 | 0.00 | 0.00 | 0.00 | 80 | 1005.2 |
| 20260506030111 | 11 | 216 | 1.6 | 4.8 | 0.00 | 0.00 | 0.00 | 80 | 1005.2 |
| 20260506025112 | 11 | 216 | 1.6 | 6.4 | 0.00 | 0.00 | 0.00 | 80 | 1005.4 |
| 20260506024111 | 11 | 216 | 3.2 | 6.4 | 0.00 | 0.00 | 0.00 | 80 | 1005.6 |
| 20260506023111 | 11 | 216 | 0.0 | 3.2 | 0.00 | 0.00 | 0.00 | 80 | 1005.8 |
| 20260506022111 | 11 | 216 | 0.0 | 0.0 | 0.00 | 0.00 | 0.00 | 80 | 1005.9 |
| 20260506021111 | 11 | 216 | 0.0 | 3.2 | 0.00 | 0.00 | 0.00 | 80 | 1005.8 |
| 20260506020111 | 11 | 216 | 3.2 | 6.4 | 0.00 | 0.00 | 0.00 | 81 | 1005.9 |
| 20260506015110 | 11 | 216 | 1.6 | 6.4 | 0.00 | 0.00 | 0.00 | 81 | 1005.9 |
| 20260506014110 | 11 | 216 | 4.8 | 9.7 | 0.00 | 0.00 | 0.00 | 81 | 1006.0 |
| 20260506013110 | 11 | 216 | 3.2 | 8.0 | 0.00 | 0.00 | 0.00 | 81 | 1006.2 |
| 20260506012110 | 11 | 216 | 3.2 | 8.0 | 0.00 | 0.00 | 0.00 | 81 | 1006.2 |
| 20260506011110 | 10 | 216 | 3.2 | 9.7 | 0.00 | 0.00 | 0.00 | 80 | 1006.2 |
| 20260506010110 | 10 | 216 | 4.8 | 9.7 | 0.00 | 0.00 | 0.00 | 80 | 1006.4 |
| 20260506005110 | 10 | 216 | 6.4 | 9.7 | 0.00 | 0.00 | 0.00 | 79 | 1006.3 |
| 20260506004111 | 10 | 216 | 3.2 | 8.0 | 0.00 | 0.00 | 0.00 | 79 | 1006.2 |
| 20260506003110 | 10 | 216 | 1.6 | 3.2 | 0.00 | 0.00 | 0.00 | 78 | 1006.5 |
| 20260506002110 | 10 | 216 | 0.0 | 3.2 | 0.00 | 0.00 | 0.00 | 78 | 1006.6 |
| 20260506001110 | 10 | 216 | 1.6 | 6.4 | 0.00 | 0.00 | 0.00 | 77 | 1006.9 |
| 20260506000110 | 10 | 216 | 0.0 | 0.0 | 0.00 | 0.00 | 0.00 | 76 | 1006.9 |
| 20260505235110 | 11 | 216 | 0.0 | 0.0 | 0.00 | 0.00 | 0.00 | 76 | 1006.8 |
| 20260505234110 | 11 | 216 | 0.0 | 0.0 | 0.00 | 0.00 | 0.00 | 75 | 1006.6 |
| 20260505233109 | 11 | 216 | 0.0 | 0.0 | 0.00 | 0.00 | 0.00 | 75 | 1006.7 |
| 20260505232109 | 11 | 216 | 0.0 | 0.0 | 0.00 | 0.00 | 0.00 | 74 | 1006.9 |
| 20260505231109 | 11 | 216 | 0.0 | 0.0 | 0.00 | 0.00 | 0.00 | 74 | 1006.9 |
| 20260505230109 | 11 | 216 | 0.0 | 1.6 | 0.00 | 0.00 | 0.00 | 73 | 1006.9 |
| 20260505225109 | 11 | 216 | 0.0 | 0.0 | 0.00 | 0.00 | 0.00 | 72 | 1007.0 |
| 20260505224110 | 11 | 216 | 0.0 | 0.0 | 0.00 | 0.00 | 0.00 | 72 | 1007.1 |
| 20260505223114 | 12 | 216 | 0.0 | 0.0 | 0.00 | 0.00 | 0.00 | 71 | 1007.1 |
| 20260505222114 | 12 | 216 | 0.0 | 1.6 | 0.00 | 0.00 | 0.00 | 71 | 1007.0 |
| 20260505221114 | 12 | 216 | 1.6 | 3.2 | 0.00 | 0.00 | 0.00 | 71 | 1007.0 |
| 20260505220114 | 12 | 216 | 0.0 | 0.0 | 0.00 | 0.00 | 0.00 | 70 | 1007.0 |
| 20260505215114 | 13 | 216 | 0.0 | 0.0 | 0.00 | 0.00 | 0.00 | 69 | 1007.1 |
| 20260505214114 | 13 | 216 | 0.0 | 0.0 | 0.00 | 0.00 | 0.00 | 69 | 1007.2 |
| 20260505213114 | 13 | 216 | 0.0 | 0.0 | 0.00 | 0.00 | 0.00 | 68 | 1007.3 |
| 20260505212114 | 13 | 216 | 0.0 | 0.0 | 0.00 | 0.00 | 0.00 | 68 | 1007.3 |
| 20260505211113 | 13 | 216 | 0.0 | 1.6 | 0.00 | 0.00 | 0.00 | 68 | 1007.3 |
| 20260505210114 | 13 | 216 | 0.0 | 0.0 | 0.00 | 0.00 | 0.00 | 67 | 1007.2 |
| 20260505205114 | 14 | 216 | 0.0 | 1.6 | 0.00 | 0.00 | 0.00 | 67 | 1007.2 |
| 20260505204113 | 14 | 216 | 0.0 | 1.6 | 0.00 | 0.00 | 0.00 | 67 | 1007.0 |
| 20260505203113 | 14 | 216 | 0.0 | 4.8 | 0.00 | 0.00 | 0.00 | 66 | 1007.0 |
| 20260505202113 | 14 | 216 | 0.0 | 1.6 | 0.00 | 0.00 | 0.00 | 65 | 1006.9 |
| 20260505201113 | 14 | 216 | 0.0 | 3.2 | 0.00 | 0.00 | 0.00 | 64 | 1006.8 |
| 20260505200113 | 14 | 216 | 1.6 | 6.4 | 0.00 | 0.00 | 0.00 | 64 | 1006.9 |
| 20260505195113 | 15 | 216 | 3.2 | 8.0 | 0.00 | 0.00 | 0.00 | 63 | 1006.7 |
| 20260505194113 | 15 | 212 | 4.8 | 14.5 | 0.00 | 0.00 | 0.00 | 63 | 1006.6 |
| 20260505193113 | 15 | 214 | 6.4 | 16.1 | 0.00 | 0.00 | 0.00 | 63 | 1006.5 |
| 20260505192113 | 15 | 225 | 11.3 | 22.5 | 0.00 | 0.00 | 0.00 | 61 | 1006.3 |
| 20260505191113 | 15 | 234 | 6.4 | 20.9 | 0.00 | 0.00 | 0.00 | 60 | 1006.4 |
| 20260505190113 | 15 | 227 | 14.5 | 33.8 | 0.00 | 0.00 | 0.00 | 59 | 1006.2 |
| 20260505185113 | 15 | 229 | 9.7 | 24.1 | 0.00 | 0.00 | 0.00 | 60 | 1006.0 |
| 20260505184112 | 15 | 220 | 6.4 | 19.3 | 0.00 | 0.00 | 0.00 | 65 | 1006.0 |
| 20260505183113 | 16 | 108 | 4.8 | 14.5 | 0.00 | 0.00 | 0.00 | 69 | 1006.1 |
| 20260505182112 | 16 | 77 | 1.6 | 4.8 | 0.00 | 0.00 | 0.00 | 69 | 1006.1 |
| 20260505181112 | 16 | 63 | 3.2 | 17.7 | 0.00 | 0.00 | 0.00 | 68 | 1005.7 |
| 20260505180112 | 16 | 5 | 3.2 | 9.7 | 0.00 | 0.00 | 0.00 | 67 | 1005.6 |
| 20260505175112 | 17 | 5 | 1.6 | 4.8 | 0.00 | 0.00 | 0.00 | 67 | 1005.5 |
| 20260505174112 | 17 | 5 | 3.2 | 6.4 | 0.00 | 0.00 | 0.00 | 67 | 1005.3 |
| 20260505173112 | 17 | 5 | 3.2 | 6.4 | 0.00 | 0.00 | 0.00 | 66 | 1005.1 |
| 20260505172112 | 17 | 5 | 1.6 | 4.8 | 0.00 | 0.00 | 0.00 | 66 | 1004.9 |
| 20260505171112 | 17 | 5 | 1.6 | 6.4 | 0.00 | 0.00 | 0.00 | 66 | 1004.7 |
| 20260505170112 | 17 | 5 | 4.8 | 11.3 | 0.00 | 0.00 | 0.00 | 66 | 1004.7 |
| 20260505165112 | 17 | 5 | 3.2 | 9.7 | 0.00 | 0.00 | 0.00 | 65 | 1004.6 |
| 20260505164111 | 17 | 24 | 4.8 | 9.7 | 0.00 | 0.00 | 0.00 | 64 | 1004.6 |
| 20260505163112 | 18 | 17 | 6.4 | 12.9 | 0.00 | 0.00 | 0.00 | 63 | 1004.5 |
| 20260505162111 | 18 | 28 | 6.4 | 12.9 | 0.00 | 0.00 | 0.00 | 62 | 1004.5 |
| 20260505161111 | 18 | 26 | 6.4 | 14.5 | 0.00 | 0.00 | 0.00 | 62 | 1004.3 |
| 20260505160111 | 18 | 360 | 4.8 | 14.5 | 0.00 | 0.00 | 0.00 | 61 | 1004.2 |
| 20260505153111 | 19 | 61 | 8.0 | 17.7 | 0.00 | 0.00 | 0.00 | 61 | 1004.0 |
| 20260505152111 | 19 | 54 | 9.7 | 22.5 | 0.00 | 0.00 | 0.00 | 61 | 1004.0 |
| 20260505151111 | 19 | 25 | 11.3 | 22.5 | 0.00 | 0.00 | 0.00 | 58 | 1004.1 |
| 20260505150111 | 20 | 38 | 6.4 | 16.1 | 0.00 | 0.00 | 0.00 | 60 | 1003.9 |
| 20260505140111 | 17 | 71 | 9.7 | 20.9 | 0.00 | 0.00 | 0.00 | 67 | 1004.1 |
| 20260505130116 | 19 | 44 | 6.4 | 16.1 | 0.00 | 0.00 | 0.00 | 65 | 1004.4 |
| 20260505124115 | 17 | 331 | 4.8 | 12.9 | 0.00 | 0.00 | 0.00 | 67 | 1004.5 |
| 20260505123115 | 17 | 324 | 3.2 | 9.7 | 0.00 | 0.00 | 0.00 | 69 | 1004.6 |
| 20260505122115 | 17 | 21 | 1.6 | 6.4 | 0.00 | 0.00 | 0.00 | 67 | 1004.8 |
| 20260505121115 | 17 | 19 | 4.8 | 9.7 | 0.00 | 0.00 | 0.00 | 68 | 1004.9 |
| 20260505120115 | 16 | 43 | 3.2 | 8.0 | 0.00 | 0.00 | 0.00 | 68 | 1005.0 |
| 20260505115115 | 16 | 43 | 4.8 | 8.0 | 0.00 | 0.00 | 0.00 | 70 | 1005.1 |
| 20260505114114 | 16 | 42 | 1.6 | 6.4 | 0.00 | 0.00 | 0.00 | 71 | 1005.1 |
| 20260505113114 | 16 | 44 | 4.8 | 11.3 | 0.00 | 0.00 | 0.00 | 71 | 1005.2 |
| 20260505112114 | 16 | 45 | 3.2 | 9.7 | 0.00 | 0.00 | 0.00 | 72 | 1005.3 |
| 20260505111115 | 16 | 51 | 4.8 | 9.7 | 0.00 | 0.00 | 0.00 | 71 | 1005.4 |
| 20260505110114 | 16 | 61 | 6.4 | 11.3 | 0.00 | 0.00 | 0.00 | 71 | 1005.3 |